Weather History for Blue Canyon, CA

Change the Weather History Date:

Wednesday, October 17, 2012

  Actual Average Record
Temperature  
Mean Temperature 69 °F -  
Max Temperature 80 °F 62 °F 80 °F (1988)
Min Temperature 59 °F 45 °F 24 °F (1971)
Cooling Degree Days 4    
Growing Degree Days 19 (Base 50)    
Moisture  
Dew Point 22 °F    
Average Humidity 19    
Maximum Humidity 36    
Minimum Humidity 6    
Precipitation  
Precipitation 0.00 in - - ()
Sea Level Pressure  
Sea Level Pressure 29.86 in    
Wind  
Wind Speed 7 mph (NE)    
Max Wind Speed 10 mph    
Max Gust Speed 21 mph    
Visibility 10 miles    
Events      
Averages and records for this station are not official NWS values.
T = Trace of Precipitation, MM = Missing Value Source: NWS Daily Summary

Daily Weather History Graph

Daily Weather History Graph

Search for Another Location

Airport:

Trip Planner

Search our weather history database for the weather conditions in past years. The results will help you decide how hot, cold, wet, or windy it might be!

Date:

Astronomy

Oct. 17, 2012 Rise Set
Actual Time 7:15 AM PDT 6:20 PM PDT
Civil Twilight 6:48 AM PDT 6:47 PM PDT
Nautical Twilight 6:17 AM PDT 7:18 PM PDT
Astronomical Twilight 5:45 AM PDT 7:49 PM PDT
Moon 9:54 AM PDT (10/17) 8:02 PM PDT (10/17)
Length of Visible Light 11h 59m
Length of Day
11h 04m
Waxing Crescent, 8% of the Moon is Illuminated
Oct 17
Waxing Crescent
Oct 21
First Quarter
Oct 29
Full
Nov 6
Last Quarter
Nov 13
New

Hourly Weather History & Observations

Time (PDT) Temp. Dew Point Humidity Pressure Visibility Wind Dir Wind Speed Gust Speed Precip Events Conditions
12:52 AM 59.0 °F 32.0 °F 36% 29.87 in 10.0 mi ENE 10.4 mph 20.7 mph N/A   Clear
1:52 AM 59.0 °F 30.9 °F 35% 29.87 in 10.0 mi Variable 6.9 mph 17.3 mph N/A   Clear
2:52 AM 59.0 °F 28.9 °F 32% 29.85 in 10.0 mi Variable 6.9 mph - N/A   Clear
3:52 AM 59.0 °F 27.0 °F 29% 29.84 in 10.0 mi NE 8.1 mph - N/A   Clear
4:52 AM 59.0 °F 24.1 °F 26% 29.86 in 10.0 mi NE 8.1 mph - N/A   Clear
5:52 AM 60.1 °F 21.0 °F 22% 29.87 in 10.0 mi NE 8.1 mph - N/A   Clear
6:52 AM 61.0 °F 18.0 °F 19% 29.88 in 10.0 mi NE 8.1 mph - N/A   Clear
7:52 AM 62.1 °F 16.0 °F 17% 29.91 in 10.0 mi NE 9.2 mph - N/A   Clear
8:52 AM 64.0 °F 18.0 °F 17% 29.91 in 10.0 mi NE 5.8 mph - N/A   Clear
9:52 AM 72.0 °F 14.0 °F 11% 29.88 in 10.0 mi Calm Calm - N/A   Clear
10:52 AM 75.0 °F 5.0 °F 7% 29.87 in 10.0 mi Variable 3.5 mph - N/A   Clear
11:52 AM 77.0 °F 3.0 °F 6% 29.86 in 10.0 mi NNW 6.9 mph - N/A   Clear
12:52 PM 79.0 °F 14.0 °F 9% 29.84 in 10.0 mi Calm Calm - N/A   Clear
1:52 PM 77.0 °F 25.0 °F 15% 29.83 in 6.0 mi West 10.4 mph - N/A   Haze
2:52 PM 77.0 °F 30.9 °F 19% 29.83 in 4.0 mi Variable 6.9 mph - N/A   Haze
3:52 PM 75.0 °F 30.9 °F 20% 29.84 in 10.0 mi WSW 5.8 mph - N/A   Clear
4:52 PM 75.0 °F 33.1 °F 22% 29.84 in 10.0 mi NW 4.6 mph - N/A   Clear
5:52 PM 73.9 °F 36.0 °F 25% 29.84 in 10.0 mi Calm Calm - N/A   Clear
6:52 PM 70.0 °F 21.9 °F 16% 29.86 in 10.0 mi NE 4.6 mph - N/A   Clear
7:52 PM 66.9 °F 21.9 °F 18% 29.88 in 10.0 mi ENE 5.8 mph - N/A   Clear
8:52 PM 68.0 °F 19.0 °F 15% 29.88 in 10.0 mi NE 10.4 mph 17.3 mph N/A   Clear
9:52 PM 66.0 °F 17.1 °F 15% 29.87 in 10.0 mi Variable 6.9 mph - N/A   Clear
10:52 PM 64.9 °F 16.0 °F 15% 29.86 in 10.0 mi NE 8.1 mph - N/A   Clear
11:52 PM 66.0 °F 16.0 °F 15% 29.86 in 10.0 mi ENE 3.5 mph - N/A   Clear